DMSP 5D-2 F13 DEB, 40464

Orbit data source: Space-Track

DMSP 5D-2 F13 DEB, 40464 is space debris in SSO originally from a launch on Fri, 24 Mar 1995 UTC launched from the Air Force Western Test Range (AFWTR). Debris objects in space refer to the collection of defunct objects orbiting the Earth. Examples of debris include non-operational satellites, rocket bodies, and fragments generated from explosions, collisions, or faulty payload assembly.

Loading next visibility...
Identifier
40464, 1995-015BG
Orbit
SSO
Country
Flag of USUS
Related business
Manufacturer
Unknown
Mission
Spacecraft
Bus & Motor
Unknown
Mass
Unknown
Launch date (UTC)
1995-03-24 (31 years ago)
Launch vehicle
Unknown
Launch site
Air Force Western Test Range (AFWTR)
Object type
Payload
Rocket body
Debris
Shape & HBR
Unknown shape, 0.1 m
Radar Cross Section
Medium (>0.1 m² and <1 m²)

Expand to show TLE details & history
Last TLE update: 4 days ago

TLE from 4 days ago
0 DMSP 5D-2 F13 DEB
1 40464U 95015BG  26169.26090800  .00001470  00000-0  82850-3 0  9995
2 40464  98.9390  95.8850 0077348 265.1764  94.0572 14.10425284575783
Epoch: 2026-06-18T06:15Z
TLE epoch observation values (Epoch: 2026-06-18T06:15:42.451Z)
Latitude
0.00006°
Longitude
95.45133°
Altitude
865.202 km
Speed
7.418 km/s
True Right ascension
06h 23m 32s
True Declination
0° 00' 00"
Sunlit
Object was in daylight at epoch
Visualization orbit readout
Latitude
Unknown
Longitude
Unknown
Altitude
Unknown
Speed
Unknown
Apparent Right ascension
Unknown
Apparent Declination
Unknown
Sunlit
N/A
Visualization observer readout
Local Sidereal Time
16:33:19
Azimuth
Unknown
Elevation
Unknown
Doppler factor
Unknown
Orbital elements
Apogee altitude
911.047 km
Perigee altitude
799.151 km
Semi-major axis
7,233.236 km
Eccentricity
0.00773
Inclination
98.939°
RAAN
95.885°
Arg. of periapsis
265.1764°
True anomaly
94.94068°
Mean anomaly
94.0572°
Eccentric anomaly
94.49901°
Mean motion
3.52813 °/min
Orbital period
102.04 mins
BSTAR
0.0008285
Loading maneuver chart data...
Computing Atmospheric mass density...

Documentation

Showing up to 5 results
|